Location: Angwan Shehu
(11.2514°N, 7.4613°E)
Time: 14:03:29
(UTC+00:00)

Centaur D-1AR AC-41 - Pass Details

Date: 14 November 2019
Orbit: 639 x 36201 km, 21.2° (Epoch: 15 December)

Event Time Altitude Azimuth Distance (km) Brightness Sun altitude
Rises 18:30:26 0° 284° (WNW) 3,634 7.5 -21.3°
Reaches altitude 10° 18:33:34 10° 300° (WNW) 2,159 5.9 -22.1°
Enters shadow 18:36:45 24° 357° (N) 1,312 4.1 -22.8°
